This demonstration page uses our WeatherBlox Daily Observations layout. Learn more.

40.92945, -100.16068

Hourly Observations for June 20, 2019

Temp ( °F °C ) Dew Point ( °F °C ) Humidity (%) Winds ( mph kmh ) Pressure ( in mb ) Visibility ( mi km ) Precip ( " mm )
12:15 am 00:15 Clear 64 18 62 16.7 92 92 SSE 7 11 29.62 1003 10 16.09344 0 0
12:35 am 00:35 Clear 63 17.4 62 16.5 94 94 SSE 7 11 29.62 1003 10 16.09344 0 0
12:55 am 00:55 Clear 64 17.5 62 16.6 95 95 SSE 8 13 29.62 1003 10 16.09344 0 0
1:15 am 01:15 Clear 64 17.8 62 16.7 93 93 S 12 19 29.62 1003 10 16.09344 0 0
1:35 am 01:35 Clear 64 17.8 62 16.6 93 93 S 10 17 29.62 1003 10 16.09344 0 0
1:55 am 01:55 Clear 64 17.7 62 16.6 93 93 S 14 22 29.62 1003 10 16.09344 0 0
2:15 am 02:15 Clear 64 17.5 62 16.5 94 94 S 10 17 29.62 1003 10 16.09344 0 0
2:35 am 02:35 Clear 64 17.6 62 16.5 93 93 S 10 17 29.59 1002 10 16.09344 0 0
2:55 am 02:55 Clear 64 17.5 62 16.5 94 94 S 13 20 29.59 1002 10 16.09344 0 0
3:15 am 03:15 Partly Cloudy 64 17.6 62 16.5 93 93 S 13 20 29.59 1002 10 16.09344 0 0
3:35 am 03:35 Mostly Cloudy 64 17.7 62 16.6 93 93 E 3 6 29.62 1003 10 16.09344 0 0
3:55 am 03:55 Mostly Cloudy 64 17.7 61 16.2 91 91 SE 8 13 29.62 1003 10 16.09344 0 0
4:15 am 04:15 Partly Cloudy 64 17.9 61 16.3 90 90 S 9 15 29.62 1003 10 16.09344 0 0
4:35 am 04:35 Mostly Cloudy 64 17.8 61 16.2 90 90 S 12 19 29.62 1003 10 16.09344 0 0
4:55 am 04:55 Mostly Cloudy 63 17.3 61 16.1 93 93 SSE 3 6 29.62 1003 10 16.09344 0 0
5:15 am 05:15 Cloudy 63 17.4 61 16.3 93 93 SE 5 7 29.62 1003 10 16.09344 0 0
5:35 am 05:35 Partly Cloudy 62 16.7 61 16 96 96 E 8 13 29.68 1005 10 16.09344 0 0
5:55 am 05:55 Clear 63 17 61 16 94 94 ESE 10 17 29.62 1003 10 16.09344 0 0
6:15 am 06:15 Sunny 62 16.7 61 16 96 96 E 9 15 29.65 1004 10 16.09344 0 0
6:35 am 06:35 Sunny 62 16.7 61 16 96 96 ESE 12 19 29.65 1004 10 16.09344 0 0
6:55 am 06:55 Sunny 63 17.1 61 16.3 95 95 SE 9 15 29.62 1003 10 16.09344 0 0
7:15 am 07:15 Sunny 63 17 61 16.2 95 95 SE 12 19 29.62 1003 10 16.09344 0 0
7:35 am 07:35 Sunny 64 17.5 62 16.4 93 93 SSE 9 15 29.65 1004 10 16.09344 0 0
7:55 am 07:55 Sunny 65 18.5 62 16.7 89 89 S 12 19 29.65 1004 10 16.09344 0 0
8:15 am 08:15 Sunny 66 18.9 62 16.7 87 87 S 8 13 29.65 1004 10 16.09344 0 0
8:35 am 08:35 Sunny 67 19.7 62 16.5 82 82 S 12 19 29.65 1004 10 16.09344 0 0
8:55 am 08:55 Sunny 69 20.5 61 16.1 76 76 S 12 19 29.59 1002 10 16.09344 0 0
9:15 am 09:15 Sunny 71 21.6 62 16.5 73 73 S 12 19 29.59 1002 10 16.09344 0 0
9:35 am 09:35 Sunny 70 21.3 61 16 72 72 SW 12 19 29.62 1003 10 16.09344 0 0
9:55 am 09:55 Sunny 73 22.5 62 16.8 70 70 SW 12 19 29.62 1003 10 16.09344 0 0
10:15 am 10:15 Sunny 73 22.7 62 16.8 69 69 WSW 10 17 29.62 1003 10 16.09344 0 0
10:35 am 10:35 Sunny 74 23.2 64 17.6 71 71 WSW 7 11 29.62 1003 10 16.09344 0 0
10:55 am 10:55 Sunny 74 23.4 64 17.8 71 71 W 8 13 29.62 1003 10 16.09344 0 0
11:15 am 11:15 Sunny 74 23.5 64 17.7 70 70 W 10 17 29.62 1003 10 16.09344 0 0
11:35 am 11:35 Sunny 75 24 64 17.6 68 68 W 10 17 29.62 1003 10 16.09344 0 0
11:55 am 11:55 Sunny 76 24.5 65 18.1 68 68 W 9 15 29.59 1002 10 16.09344 0 0
12:15 pm 12:15 Sunny 76 24.5 64 18 67 67 WNW 9 15 29.59 1002 10 16.09344 0 0
12:35 pm 12:35 Sunny 76 24.7 65 18.3 68 68 WNW 8 13 29.62 1003 10 16.09344 0 0
12:55 pm 12:55 Sunny 77 25 65 18.5 67 67 NW 8 13 29.62 1003 10 16.09344 0 0
1:15 pm 13:15 Sunny 78 25.6 65 18.5 65 65 WNW 8 13 29.62 1003 10 16.09344 0 0
1:35 pm 13:35 Sunny 78 25.6 65 18.6 65 65 NNW 6 9 29.62 1003 10 16.09344 0 0
1:55 pm 13:55 Sunny 79 26 66 18.7 64 64 WNW 6 9 29.62 1003 10 16.09344 0 0
2:15 pm 14:15 Sunny 79 26 65 18.6 64 64 NNW 7 11 29.59 1002 10 16.09344 0 0
2:35 pm 14:35 Sunny 80 26.4 66 18.7 63 63 N 7 11 29.62 1003 10 16.09344 0 0
2:55 pm 14:55 Sunny 80 26.4 67 19.4 65 65 N 7 11 29.62 1003 10 16.09344 0 0
3:15 pm 15:15 Sunny 80 26.6 67 19.2 64 64 NNE 8 13 29.59 1002 10 16.09344 0 0
3:35 pm 15:35 Sunny 80 26.5 67 19.7 66 66 NE 8 13 29.59 1002 10 16.09344 0 0
3:55 pm 15:55 Sunny 79 26.2 68 20 69 69 ENE 9 15 29.59 1002 10 16.09344 0 0
4:15 pm 16:15 Sunny 80 26.5 68 19.9 67 67 ENE 8 13 29.59 1002 10 16.09344 0 0
4:35 pm 16:35 Sunny 80 26.5 67 19.3 65 65 ENE 6 9 29.59 1002 10 16.09344 0 0
4:55 pm 16:55 Sunny 80 26.5 66 18.9 63 63 ENE 5 7 29.59 1002 10 16.09344 0 0
5:15 pm 17:15 Sunny 80 26.5 66 19.1 64 64 ENE 6 9 29.59 1002 10 16.09344 0 0
5:35 pm 17:35 Sunny 79 26.3 66 19.1 65 65 NE 6 9 29.59 1002 10 16.09344 0 0
5:55 pm 17:55 Sunny 79 26 67 19.2 66 66 ENE 8 13 29.59 1002 10 16.09344 0 0
6:15 pm 18:15 Sunny 79 25.9 67 19.5 68 68 E 8 13 29.59 1002 10 16.09344 0 0
6:35 pm 18:35 Sunny 78 25.7 66 18.8 66 66 E 12 19 29.56 1001 10 16.09344 0 0
6:55 pm 18:55 Sunny 78 25.5 65 18.3 64 64 E 10 17 29.56 1001 10 16.09344 0 0
7:15 pm 19:15 Sunny 77 25.2 66 18.8 68 68 E 8 13 29.56 1001 10 16.09344 0 0
7:35 pm 19:35 Sunny 77 24.9 65 18.5 68 68 E 13 20 29.56 1001 10 16.09344 0 0
7:55 pm 19:55 Sunny 76 24.4 65 18.2 68 68 E 13 20 29.56 1001 10 16.09344 0 0
8:15 pm 20:15 Sunny 74 23.1 65 18.5 75 75 E 9 15 29.59 1002 10 16.09344 0 0
8:35 pm 20:35 Sunny 72 22.4 66 18.8 80 80 E 8 13 29.59 1002 10 16.09344 0 0
8:55 pm 20:55 Sunny 72 22 66 19 83 83 E 8 13 29.62 1003 10 16.09344 0 0
9:15 pm 21:15 Clear 71 21.7 66 19 85 85 E 8 13 29.62 1003 10 16.09344 0 0
9:35 pm 21:35 Clear 71 21.4 66 19 86 86 ENE 8 13 29.59 1002 10 16.09344 0 0
9:55 pm 21:55 Clear 70 21.2 66 18.8 86 86 Calm 29.62 1003 10 16.09344 0 0
10:15 pm 22:15 Partly Cloudy 70 21 66 19 88 88 NW 6 9 29.65 1004 10 16.09344 0 0
10:35 pm 22:35 Partly Cloudy 69 20.5 66 19 91 91 N 7 11 29.65 1004 10 16.09344 0 0
10:55 pm 22:55 Partly Cloudy 68 20.2 66 18.9 92 92 NNE 8 13 29.62 1003 10 16.09344 0 0
11:15 pm 23:15 Partly Cloudy 69 20.7 65 18.1 85 85 NE 7 11 29.62 1003 10 16.09344 0 0
11:35 pm 23:35 Partly Cloudy with Light Rain 69 20.5 65 18.2 87 87 N 6 9 29.65 1004 10 16.09344 0 0
11:55 pm 23:55 Mostly Cloudy with Light Rain 68 20.2 65 18.6 91 91 W 7 11 29.65 1004 10 16.09344 0 0

Powered by AerisWeather